• In Netherlands
  • List of Countries
  • For 7 days
  • Water Temperature
  • Satellite Maps
  • Weather Map
  • Weather Widgets
  • user-avatar
    Login

    Hourly Weather Tibissa

    Today, 22 November, Wednesday

    Time Temperature Precipitation Wind Pressure Humidity
    00:00 +10°C° 0 mm 1 mps 688 mmHg 38%
    01:00 +10°C° 0 mm 1 mps 687 mmHg 38%
    02:00 +9°C° 0 mm 1 mps 687 mmHg 38%
    03:00 +9°C° 0 mm 1 mps 687 mmHg 38%
    04:00 +9°C° 0 mm 1 mps 687 mmHg 38%
    05:00 +9°C° 0 mm 1 mps 686 mmHg 39%
    06:00 +8°C° 0 mm 1 mps 686 mmHg 39%
    07:00 +8°C° 0 mm 1 mps 686 mmHg 40%
    08:00 +10°C° 0 mm 1 mps 687 mmHg 35%
    09:00 +12°C° 0 mm 2 mps 687 mmHg 30%
    10:00 +14°C° 0 mm 2 mps 688 mmHg 26%
    11:00 +14°C° 0 mm 3 mps 688 mmHg 24%
    12:00 +16°C° 0 mm 3 mps 688 mmHg 23%
    13:00 +15°C° 0 mm 4 mps 688 mmHg 23%
    14:00 +15°C° 0 mm 4 mps 687 mmHg 26%
    15:00 +14°C° 0 mm 4 mps 687 mmHg 28%
    16:00 +14°C° 0 mm 4 mps 687 mmHg 30%
    17:00 +13°C° 0 mm 3 mps 686 mmHg 35%
    18:00 +12°C° 0 mm 3 mps 686 mmHg 39%
    19:00 +11°C° 0 mm 3 mps 686 mmHg 44%
    20:00 +12°C° 0 mm 2 mps 686 mmHg 47%
    21:00 +10°C° 0 mm 2 mps 686 mmHg 50%
    22:00 +10°C° 0 mm 2 mps 686 mmHg 53%
    23:00 +10°C° 0 mm 2 mps 686 mmHg 54%

    Tomorrow, 23 November, Thursday

    Time Temperature Precipitation Wind Pressure Humidity
    00:00 +9°C° 0 mm 2 mps 686 mmHg 56%
    01:00 +10°C° 0 mm 1 mps 686 mmHg 58%
    02:00 +10°C° 0 mm 1 mps 685 mmHg 59%
    03:00 +10°C° 0 mm 1 mps 685 mmHg 60%
    04:00 +9°C° 0 mm 1 mps 685 mmHg 61%
    05:00 +9°C° 0 mm 1 mps 685 mmHg 61%
    06:00 +9°C° 0 mm 1 mps 685 mmHg 62%
    07:00 +9°C° 0 mm 1 mps 685 mmHg 62%
    08:00 +10°C° 0 mm 1 mps 686 mmHg 57%
    09:00 +11°C° 0 mm 1 mps 686 mmHg 51%
    10:00 +13°C° 0 mm 1 mps 687 mmHg 45%
    11:00 +13°C° 0 mm 1 mps 687 mmHg 43%
    12:00 +14°C° 0 mm 1 mps 687 mmHg 40%
    13:00 +15°C° 0 mm 1 mps 687 mmHg 37%
    14:00 +15°C° 0 mm 2 mps 687 mmHg 36%
    15:00 +16°C° 0 mm 2 mps 687 mmHg 36%
    16:00 +16°C° 0 mm 3 mps 687 mmHg 35%
    17:00 +14°C° 0 mm 3 mps 687 mmHg 38%
    18:00 +13°C° 0 mm 3 mps 687 mmHg 41%
    19:00 +12°C° 0 mm 3 mps 687 mmHg 44%
    20:00 +12°C° 0 mm 2 mps 687 mmHg 46%
    21:00 +12°C° 0 mm 2 mps 687 mmHg 48%
    22:00 +10°C° 0 mm 2 mps 688 mmHg 51%
    23:00 +10°C° 0 mm 2 mps 687 mmHg 53%

    Day after tomorrow, 24 November, Friday

    Time Temperature Precipitation Wind Pressure Humidity
    00:00 +10°C° 0 mm 1 mps 687 mmHg 55%
    01:00 +10°C° 0 mm 1 mps 687 mmHg 58%
    02:00 +9°C° 0 mm 1 mps 687 mmHg 58%
    03:00 +9°C° 0 mm 1 mps 687 mmHg 59%
    04:00 +9°C° 0 mm 1 mps 687 mmHg 59%
    05:00 +7°C° 0 mm 2 mps 687 mmHg 59%
    06:00 +7°C° 0 mm 2 mps 687 mmHg 59%
    07:00 +7°C° 0 mm 2 mps 687 mmHg 59%
    08:00 +8°C° 0 mm 2 mps 688 mmHg 52%
    09:00 +10°C° 0 mm 2 mps 689 mmHg 46%
    10:00 +13°C° 0 mm 2 mps 689 mmHg 39%
    11:00 +13°C° 0 mm 2 mps 689 mmHg 36%
    12:00 +14°C° 0 mm 2 mps 689 mmHg 33%
    13:00 +15°C° 0 mm 2 mps 689 mmHg 30%
    14:00 +15°C° 0 mm 2 mps 689 mmHg 29%
    15:00 +16°C° 0 mm 2 mps 689 mmHg 29%
    16:00 +16°C° 0 mm 2 mps 689 mmHg 29%
    17:00 +14°C° 0 mm 1 mps 689 mmHg 34%
    18:00 +13°C° 0 mm 1 mps 688 mmHg 40%
    19:00 +12°C° 0 mm 1 mps 688 mmHg 45%
    20:00 +11°C° 0 mm 1 mps 689 mmHg 47%
    21:00 +9°C° 0 mm 0 mps 689 mmHg 49%
    22:00 +9°C° 0 mm 0 mps 689 mmHg 51%
    23:00 +9°C° 0 mm 0 mps 689 mmHg 51%

    25 November, Saturday

    Time Temperature Precipitation Wind Pressure Humidity
    00:00 +9°C° 0 mm 1 mps 688 mmHg 51%
    01:00 +9°C° 0 mm 1 mps 688 mmHg 51%
    02:00 +9°C° 0 mm 1 mps 688 mmHg 51%
    03:00 +9°C° 0 mm 1 mps 688 mmHg 50%
    04:00 +9°C° 0 mm 1 mps 688 mmHg 50%
    05:00 +8°C° 0 mm 1 mps 688 mmHg 49%
    06:00 +8°C° 0 mm 1 mps 688 mmHg 47%
    07:00 +7°C° 0 mm 2 mps 688 mmHg 46%
    08:00 +9°C° 0 mm 2 mps 688 mmHg 40%
    09:00 +12°C° 0 mm 2 mps 689 mmHg 35%
    10:00 +14°C° 0 mm 2 mps 690 mmHg 29%
    11:00 +15°C° 0 mm 2 mps 690 mmHg 26%
    12:00 +16°C° 0 mm 3 mps 690 mmHg 23%
    13:00 +18°C° 0 mm 3 mps 689 mmHg 19%
    14:00 +18°C° 0 mm 3 mps 689 mmHg 20%
    15:00 +18°C° 0 mm 3 mps 689 mmHg 20%
    16:00 +18°C° 0 mm 3 mps 689 mmHg 21%
    17:00 +16°C° 0 mm 2 mps 689 mmHg 24%
    18:00 +15°C° 0 mm 2 mps 688 mmHg 28%
    19:00 +13°C° 0 mm 1 mps 688 mmHg 32%
    20:00 +12°C° 0 mm 1 mps 688 mmHg 33%
    21:00 +12°C° 0 mm 1 mps 688 mmHg 33%
    22:00 +12°C° 0 mm 1 mps 689 mmHg 34%
    23:00 +11°C° 0 mm 1 mps 689 mmHg 34%

    26 November, Sunday

    Time Temperature Precipitation Wind Pressure Humidity
    00:00 +11°C° 0 mm 1 mps 688 mmHg 34%
    01:00 +11°C° 0 mm 1 mps 688 mmHg 35%
    02:00 +10°C° 0 mm 1 mps 688 mmHg 35%
    03:00 +10°C° 0 mm 1 mps 688 mmHg 36%
    04:00 +10°C° 0 mm 1 mps 687 mmHg 37%
    05:00 +9°C° 0 mm 1 mps 687 mmHg 37%
    06:00 +9°C° 0 mm 1 mps 688 mmHg 37%
    07:00 +9°C° 0 mm 1 mps 688 mmHg 37%
    08:00 +11°C° 0 mm 1 mps 688 mmHg 33%
    09:00 +13°C° 0 mm 1 mps 689 mmHg 29%
    10:00 +16°C° 0 mm 1 mps 690 mmHg 24%
    11:00 +16°C° 0 mm 1 mps 690 mmHg 23%
    12:00 +17°C° 0 mm 2 mps 690 mmHg 21%
    13:00 +18°C° 0 mm 2 mps 690 mmHg 20%
    14:00 +18°C° 0 mm 2 mps 690 mmHg 21%
    15:00 +18°C° 0 mm 3 mps 690 mmHg 22%
    16:00 +18°C° 0 mm 3 mps 690 mmHg 23%
    17:00 +16°C° 0 mm 3 mps 690 mmHg 30%
    18:00 +14°C° 0 mm 3 mps 690 mmHg 37%
    19:00 +12°C° 0 mm 3 mps 690 mmHg 43%
    20:00 +12°C° 0 mm 3 mps 690 mmHg 51%
    21:00 +11°C° 0 mm 3 mps 690 mmHg 59%
    22:00 +12°C° 0 mm 2 mps 690 mmHg 67%
    23:00 +10°C° 0 mm 3 mps 690 mmHg 72%

    27 November, Monday

    Time Temperature Precipitation Wind Pressure Humidity
    00:00 +10°C° 0 mm 3 mps 690 mmHg 78%
    01:00 +9°C° 0 mm 3 mps 690 mmHg 83%
    02:00 +8°C° 0 mm 4 mps 690 mmHg 83%
    03:00 +8°C° 0 mm 4 mps 690 mmHg 83%
    04:00 +8°C° 0 mm 4 mps 690 mmHg 83%
    05:00 +8°C° 0 mm 4 mps 690 mmHg 84%
    06:00 +7°C° 0 mm 4 mps 690 mmHg 84%
    07:00 +7°C° 0 mm 4 mps 690 mmHg 84%
    08:00 +8°C° 0 mm 5 mps 691 mmHg 79%
    09:00 +8°C° 0 mm 5 mps 691 mmHg 74%
    10:00 +9°C° 0 mm 6 mps 691 mmHg 69%
    11:00 +9°C° 0 mm 6 mps 691 mmHg 65%
    12:00 +10°C° 0 mm 6 mps 691 mmHg 61%
    13:00 +10°C° 0 mm 7 mps 691 mmHg 57%
    14:00 +10°C° 0 mm 6 mps 691 mmHg 57%
    15:00 +10°C° 0 mm 6 mps 691 mmHg 57%
    16:00 +9°C° 0 mm 6 mps 690 mmHg 57%
    17:00 +8°C° 0 mm 5 mps 690 mmHg 61%
    18:00 +7°C° 0 mm 5 mps 691 mmHg 64%
    19:00 +6°C° 0 mm 4 mps 691 mmHg 68%
    20:00 +7°C° 0 mm 3 mps 691 mmHg 71%
    21:00 +5°C° 0 mm 3 mps 691 mmHg 74%
    22:00 +6°C° 0 mm 2 mps 691 mmHg 76%
    23:00 +5°C° 0 mm 2 mps 691 mmHg 77%
    Show more